"SCLK","SCET","ORBIT_NUMBER","ALTITUDE","LATITUDE_PLANEOGRAPHIC","LATITUDE_PLANETOCENTRIC","LOCAL_TRUE_SOLAR_TIME","WEST_LONGITUDE","X_SUN_DIR_DISTANCE","RHO_PRP_SUN_DISTANCE","SOLAR_ZENITH_ANGLE","ELECTRON_PLASMA_FREQUENCY","FPE_QUALITY","FPP_VERIFICATION","ELECTRON_PLASMA_DENSITY","ELECTRON_CYCLOTRON_PERIOD","FCP_QUALITY","B_MAGNITUDE"
"1/0362677475.46453",2014-10-29T15:44:39.528,13743,1328.00,66.14,65.93,"02:14:21",269.03,-0.650,1.220,117.90,3.90e+01,1,,1.89e+01,,,
"1/0362677483.16503",2014-10-29T15:44:47.071,13743,1317.00,66.44,66.24,"02:30:31",268.96,-0.650,1.220,117.75,4.00e+01,1,,1.98e+01,,,
"1/0362677490.52090",2014-10-29T15:44:54.614,13743,1307.00,66.75,66.55,"02:48:58",268.88,-0.640,1.220,117.59,3.90e+01,1,,1.89e+01,3.88e+00,1,9.19e+00
"1/0362677505.57726",2014-10-29T15:45:09.700,13743,1287.00,67.37,67.17,"03:25:53",268.72,-0.630,1.220,117.28,,,,,3.39e+00,1,1.05e+01
"1/0362677513.27841",2014-10-29T15:45:17.244,13743,1276.00,67.68,67.48,"03:44:21",268.64,-0.630,1.220,117.12,,,,,3.20e+00,1,1.11e+01
"1/0362677520.63427",2014-10-29T15:45:24.787,13743,1266.00,68.00,67.80,"04:05:05",268.55,-0.620,1.220,116.96,,,,,3.49e+00,1,1.02e+01
"1/0362677528.33477",2014-10-29T15:45:32.330,13743,1256.00,68.31,68.11,"04:25:50",268.46,-0.620,1.220,116.80,,,,,3.60e+00,1,9.91e+00
"1/0362677536.03527",2014-10-29T15:45:39.873,13743,1246.00,68.63,68.43,"04:48:53",268.36,-0.610,1.220,116.63,,,,,3.69e+00,1,9.69e+00
"1/0362677619.01954",2014-10-29T15:47:02.849,13743,1137.00,72.18,72.01,"10:08:47",266.97,-0.560,1.210,114.74,,,,,4.13e+00,1,8.64e+00
"1/0362677626.37540",2014-10-29T15:47:10.392,13743,1127.00,72.51,72.34,"10:47:52",266.80,-0.550,1.210,114.56,3.80e+01,1,,1.79e+01,4.52e+00,1,7.91e+00
"1/0362677634.07590",2014-10-29T15:47:17.935,13743,1118.00,72.85,72.68,"11:26:57",266.63,-0.550,1.200,114.38,4.00e+01,1,,1.98e+01,4.87e+00,1,7.34e+00
"1/0362677641.43176",2014-10-29T15:47:25.478,13743,1108.00,73.18,73.01,"12:10:37",266.44,-0.540,1.200,114.19,4.20e+01,1,,2.19e+01,,,
"1/0362677649.13226",2014-10-29T15:47:33.021,13743,1098.00,73.51,73.35,"12:54:18",266.25,-0.540,1.200,114.01,4.40e+01,1,,2.40e+01,,,
"1/0362677656.48878",2014-10-29T15:47:40.565,13743,1089.00,73.85,73.69,"13:40:15",266.05,-0.530,1.200,113.82,4.40e+01,1,,2.40e+01,,,
"1/0362677664.18928",2014-10-29T15:47:48.108,13743,1079.00,74.19,74.03,"14:28:30",265.84,-0.530,1.200,113.64,4.00e+01,1,,1.98e+01,,,
"1/0362677671.54514",2014-10-29T15:47:55.651,13743,1070.00,74.52,74.37,"15:19:03",265.62,-0.520,1.200,113.45,4.40e+01,1,,2.40e+01,,,
"1/0362677679.24564",2014-10-29T15:48:03.194,13743,1060.00,74.86,74.71,"16:14:10",265.38,-0.520,1.200,113.26,4.30e+01,1,,2.29e+01,,,
"1/0362677686.60150",2014-10-29T15:48:10.737,13743,1051.00,75.20,75.05,"17:11:35",265.13,-0.510,1.200,113.06,4.50e+01,1,,2.51e+01,3.75e+00,1,9.52e+00
"1/0362677694.30265",2014-10-29T15:48:18.281,13743,1042.00,75.54,75.40,"18:11:18",264.87,-0.510,1.200,112.87,4.50e+01,1,,2.51e+01,3.95e+00,1,9.04e+00
"1/0362677702.00315",2014-10-29T15:48:25.824,13743,1032.00,75.88,75.74,"19:15:36",264.59,-0.500,1.200,112.68,4.60e+01,1,,2.62e+01,3.97e+00,1,9.00e+00
"1/0362677709.35901",2014-10-29T15:48:33.367,13743,1023.00,76.23,76.09,"20:22:11",264.30,-0.500,1.200,112.48,4.80e+01,1,,2.86e+01,,,
"1/0362677717.05951",2014-10-29T15:48:40.910,13743,1014.00,76.57,76.43,"21:35:38",263.98,-0.490,1.200,112.28,5.20e+01,2,,3.35e+01,,,
"1/0362677724.41537",2014-10-29T15:48:48.453,13743,1005.00,76.92,76.78,"22:51:23",263.65,-0.490,1.190,112.08,5.50e+01,2,,3.75e+01,,,
"1/0362677732.11653",2014-10-29T15:48:55.997,13743,995.00,77.26,77.13,"00:11:44",263.30,-0.480,1.190,111.88,5.70e+01,2,,4.03e+01,,,
"1/0362677739.47239",2014-10-29T15:49:03.540,13743,986.00,77.61,77.48,"01:36:39",262.93,-0.480,1.190,111.68,5.90e+01,2,,4.32e+01,,,
"1/0362677747.17289",2014-10-29T15:49:11.083,13743,977.00,77.96,77.83,"03:08:27",262.53,-0.470,1.190,111.48,6.50e+01,2,,5.24e+01,,,
"1/0362677754.52875",2014-10-29T15:49:18.626,13743,968.00,78.30,78.18,"04:47:07",262.10,-0.460,1.190,111.28,7.10e+01,2,,6.25e+01,,,
"1/0362677762.22925",2014-10-29T15:49:26.169,13743,959.00,78.65,78.53,"06:32:40",261.64,-0.460,1.190,111.07,8.80e+01,2,,9.60e+01,,,
"1/0362677769.58577",2014-10-29T15:49:33.713,13743,950.00,79.00,78.88,"08:25:05",261.15,-0.450,1.190,110.86,9.70e+01,2,,1.17e+02,,,
"1/0362677777.28627",2014-10-29T15:49:41.256,13743,942.00,79.35,79.24,"10:24:23",260.63,-0.450,1.190,110.65,1.01e+02,2,,1.26e+02,,,
"1/0362677784.64213",2014-10-29T15:49:48.799,13743,933.00,79.70,79.59,"12:32:51",260.07,-0.440,1.190,110.44,1.08e+02,2,,1.45e+02,,,
"1/0362677792.34263",2014-10-29T15:49:56.342,13743,924.00,80.05,79.94,"14:52:46",259.46,-0.440,1.190,110.23,1.23e+02,2,,1.88e+02,,,
"1/0362677800.04313",2014-10-29T15:50:03.885,13743,915.00,80.40,80.30,"17:24:09",258.80,-0.430,1.190,110.02,1.28e+02,2,,2.03e+02,,,
"1/0362677807.39964",2014-10-29T15:50:11.429,13743,907.00,80.75,80.65,"20:07:00",258.09,-0.430,1.190,109.80,1.32e+02,2,,2.16e+02,,,
"1/0362677815.10014",2014-10-29T15:50:18.972,13743,898.00,81.10,81.00,"23:03:35",257.32,-0.420,1.180,109.59,1.39e+02,2,,2.40e+02,,,
"1/0362677822.45600",2014-10-29T15:50:26.515,13743,889.00,81.45,81.36,"02:18:31",256.47,-0.420,1.180,109.37,1.45e+02,2,,2.61e+02,,,
"1/0362677830.15650",2014-10-29T15:50:34.058,13743,881.00,81.80,81.71,"05:49:29",255.55,-0.410,1.180,109.15,1.45e+02,2,,2.61e+02,,,
"1/0362677837.51236",2014-10-29T15:50:41.601,13743,872.00,82.15,82.06,"09:38:48",254.55,-0.410,1.180,108.93,1.44e+02,2,,2.57e+02,,,
"1/0362677845.21352",2014-10-29T15:50:49.145,13743,864.00,82.49,82.41,"13:53:18",253.44,-0.400,1.180,108.71,1.33e+02,2,,2.19e+02,,,
"1/0362677852.56938",2014-10-29T15:50:56.688,13743,856.00,82.84,82.76,"18:33:02",252.22,-0.400,1.180,108.48,1.25e+02,2,,1.94e+02,,,
"1/0362677860.26988",2014-10-29T15:51:04.231,13743,847.00,83.18,83.10,"23:42:33",250.87,-0.390,1.180,108.26,1.25e+02,2,,1.94e+02,,,
"1/0362677867.62574",2014-10-29T15:51:11.774,13743,839.00,83.52,83.45,"05:26:27",249.37,-0.380,1.180,108.03,1.23e+02,2,,1.88e+02,,,
"1/0362677875.32624",2014-10-29T15:51:19.317,13743,831.00,83.86,83.79,"11:51:36",247.69,-0.380,1.180,107.81,1.16e+02,2,,1.67e+02,,,
"1/0362677883.02740",2014-10-29T15:51:26.861,13743,823.00,84.19,84.12,"19:02:35",245.81,-0.370,1.180,107.58,1.12e+02,2,,1.56e+02,,,
"1/0362677890.38326",2014-10-29T15:51:34.404,13743,814.00,84.51,84.45,"03:06:17",243.70,-0.370,1.180,107.35,1.10e+02,2,,1.50e+02,,,
"1/0362677898.08376",2014-10-29T15:51:41.947,13743,806.00,84.83,84.77,"12:14:09",241.31,-0.360,1.180,107.12,1.06e+02,2,,1.39e+02,,,
"1/0362677905.43962",2014-10-29T15:51:49.490,13743,798.00,85.14,85.08,"22:35:22",238.60,-0.360,1.180,106.88,9.90e+01,2,,1.22e+02,,,
"1/0362677913.14012",2014-10-29T15:51:57.033,13743,790.00,85.43,85.38,"10:21:22",235.52,-0.350,1.170,106.65,9.40e+01,2,,1.10e+02,4.42e+00,1,8.09e+00
"1/0362677920.49663",2014-10-29T15:52:04.577,13743,783.00,85.71,85.66,"23:45:56",232.01,-0.350,1.170,106.41,8.90e+01,2,,9.82e+01,4.30e+00,1,8.31e+00
"1/0362677928.19713",2014-10-29T15:52:12.120,13743,775.00,85.98,85.93,"15:05:04",228.00,-0.340,1.170,106.18,9.00e+01,2,,1.00e+02,4.37e+00,1,8.18e+00
"1/0362677935.55299",2014-10-29T15:52:19.663,13743,767.00,86.22,86.18,"08:32:34",223.43,-0.330,1.170,105.94,1.08e+02,2,,1.45e+02,,,
"1/0362677943.25349",2014-10-29T15:52:27.206,13743,759.00,86.44,86.39,"04:22:09",218.24,-0.330,1.170,105.70,1.11e+02,2,,1.53e+02,,,
"1/0362677950.60935",2014-10-29T15:52:34.749,13743,752.00,86.62,86.58,"02:36:07",212.42,-0.320,1.170,105.45,1.13e+02,2,,1.58e+02,,,
"1/0362677958.31051",2014-10-29T15:52:42.293,13743,744.00,86.77,86.73,"03:12:10",205.98,-0.320,1.170,105.21,1.20e+02,2,,1.79e+02,,,
"1/0362677966.01101",2014-10-29T15:52:49.836,13743,737.00,86.87,86.83,"05:52:00",199.00,-0.310,1.170,104.97,1.27e+02,2,,2.00e+02,,,
"1/0362677973.36687",2014-10-29T15:52:57.379,13743,729.00,86.92,86.88,"09:56:37",191.65,-0.310,1.170,104.72,1.25e+02,2,,1.94e+02,,,
"1/0362677981.06737",2014-10-29T15:53:04.922,13743,722.00,86.92,86.88,"14:35:37",184.15,-0.300,1.170,104.48,1.22e+02,2,,1.85e+02,,,
"1/0362677988.42323",2014-10-29T15:53:12.465,13743,714.00,86.86,86.82,"18:51:41",176.75,-0.300,1.170,104.23,1.38e+02,2,,2.36e+02,,,
"1/0362677996.12439",2014-10-29T15:53:20.009,13743,707.00,86.76,86.72,"21:47:33",169.70,-0.290,1.170,103.98,1.52e+02,2,,2.87e+02,,,
"1/0362678003.48025",2014-10-29T15:53:27.552,13743,700.00,86.61,86.57,"22:46:32",163.16,-0.280,1.170,103.73,1.64e+02,2,,3.34e+02,,,
"1/0362678011.18075",2014-10-29T15:53:35.095,13743,693.00,86.41,86.37,"21:25:42",157.23,-0.280,1.160,103.47,1.68e+02,2,,3.50e+02,,,
"1/0362678018.53661",2014-10-29T15:53:42.638,13743,686.00,86.19,86.14,"17:38:12",151.94,-0.270,1.160,103.22,1.63e+02,2,,3.29e+02,,,
"1/0362678026.23711",2014-10-29T15:53:50.181,13743,679.00,85.93,85.88,"11:28:37",147.27,-0.270,1.160,102.97,1.66e+02,2,,3.42e+02,,,
"1/0362678033.59362",2014-10-29T15:53:57.725,13743,672.00,85.65,85.60,"03:08:23",143.17,-0.260,1.160,102.71,1.62e+02,2,,3.25e+02,,,
"1/0362678041.29412",2014-10-29T15:54:05.268,13743,665.00,85.34,85.29,"16:51:17",139.58,-0.260,1.160,102.45,1.71e+02,2,,3.63e+02,,,
"1/0362678048.64998",2014-10-29T15:54:12.811,13743,658.00,85.02,84.96,"04:53:20",136.43,-0.250,1.160,102.19,1.69e+02,2,,3.54e+02,,,
"1/0362678056.35048",2014-10-29T15:54:20.354,13743,651.00,84.69,84.63,"15:28:17",133.66,-0.240,1.160,101.93,1.56e+02,2,,3.02e+02,,,
"1/0362678064.05098",2014-10-29T15:54:27.897,13743,645.00,84.34,84.27,"00:47:37",131.22,-0.240,1.160,101.67,1.51e+02,2,,2.83e+02,,,
"1/0362678071.40750",2014-10-29T15:54:35.441,13743,638.00,83.98,83.91,"09:02:46",129.06,-0.230,1.160,101.41,1.45e+02,2,,2.61e+02,,,
"1/0362678079.10800",2014-10-29T15:54:42.984,13743,631.00,83.61,83.54,"16:20:38",127.15,-0.230,1.160,101.15,1.37e+02,2,,2.33e+02,,,
"1/0362678086.46386",2014-10-29T15:54:50.527,13743,625.00,83.24,83.16,"22:52:40",125.44,-0.220,1.160,100.88,1.41e+02,2,,2.47e+02,,,
"1/0362678094.16436",2014-10-29T15:54:58.070,13743,618.00,82.86,82.78,"04:43:26",123.91,-0.220,1.160,100.61,1.48e+02,2,,2.72e+02,,,
"1/0362678101.52088",2014-10-29T15:55:05.614,13743,612.00,82.47,82.38,"09:57:32",122.54,-0.210,1.150,100.35,1.45e+02,2,,2.61e+02,,,
"1/0362678109.22138",2014-10-29T15:55:13.157,13743,606.00,82.08,81.99,"14:44:08",121.29,-0.200,1.150,100.08,1.39e+02,2,,2.40e+02,,,
"1/0362678116.57724",2014-10-29T15:55:20.700,13743,600.00,81.68,81.58,"19:00:57",120.17,-0.200,1.150,99.81,1.42e+02,2,,2.50e+02,,,
"1/0362678124.27774",2014-10-29T15:55:28.243,13743,594.00,81.28,81.18,"22:54:50",119.15,-0.190,1.150,99.54,1.40e+02,2,,2.43e+02,,,
"1/0362678131.63360",2014-10-29T15:55:35.786,13743,588.00,80.87,80.77,"02:30:23",118.21,-0.190,1.150,99.27,1.41e+02,2,,2.47e+02,,,
"1/0362678139.33475",2014-10-29T15:55:43.330,13743,582.00,80.46,80.35,"05:45:19",117.36,-0.180,1.150,98.99,1.45e+02,2,,2.61e+02,,,
"1/0362678147.03525",2014-10-29T15:55:50.873,13743,576.00,80.05,79.94,"08:46:30",116.57,-0.170,1.150,98.72,1.50e+02,2,,2.79e+02,,,
"1/0362678154.39111",2014-10-29T15:55:58.416,13743,570.00,79.63,79.52,"11:31:38",115.85,-0.170,1.150,98.44,1.55e+02,2,,2.98e+02,,,
"1/0362678162.09161",2014-10-29T15:56:05.959,13743,564.00,79.22,79.09,"14:05:18",115.18,-0.160,1.150,98.17,1.63e+02,2,,3.29e+02,,,
"1/0362678169.44747",2014-10-29T15:56:13.502,13743,558.00,78.79,78.67,"16:25:14",114.57,-0.160,1.150,97.89,1.71e+02,2,,3.63e+02,,,
"1/0362678177.14863",2014-10-29T15:56:21.046,13743,553.00,78.37,78.24,"18:35:59",114.00,-0.150,1.150,97.61,1.74e+02,2,,3.75e+02,,,
"1/0362678184.50449",2014-10-29T15:56:28.589,13743,547.00,77.94,77.81,"20:39:52",113.46,-0.150,1.150,97.33,1.80e+02,2,,4.02e+02,,,
"1/0362678192.20499",2014-10-29T15:56:36.132,13743,542.00,77.52,77.37,"22:32:17",112.97,-0.140,1.140,97.05,1.89e+02,2,,4.43e+02,,,
"1/0362678199.56085",2014-10-29T15:56:43.675,13743,537.00,77.09,76.94,"00:17:50",112.51,-0.130,1.140,96.77,1.90e+02,2,,4.48e+02,,,
"1/0362678207.26135",2014-10-29T15:56:51.218,13743,531.00,76.65,76.50,"01:58:48",112.07,-0.130,1.140,96.48,1.88e+02,2,,4.38e+02,,,
"1/0362678214.61787",2014-10-29T15:56:58.762,13743,526.00,76.22,76.06,"03:30:36",111.67,-0.120,1.140,96.20,1.88e+02,2,,4.38e+02,,,
"1/0362678222.31837",2014-10-29T15:57:06.305,13743,521.00,75.78,75.62,"04:57:48",111.29,-0.120,1.140,95.91,2.01e+02,2,,5.01e+02,,,
"1/0362678230.01887",2014-10-29T15:57:13.848,13743,516.00,75.34,75.18,"06:20:26",110.93,-0.110,1.140,95.63,2.09e+02,2,,5.42e+02,,,
"1/0362678237.37473",2014-10-29T15:57:21.391,13743,511.00,74.90,74.73,"07:36:11",110.60,-0.100,1.140,95.34,2.07e+02,2,,5.31e+02,,,
"1/0362678245.07523",2014-10-29T15:57:28.934,13743,506.00,74.46,74.29,"08:49:39",110.28,-0.100,1.140,95.05,2.28e+02,2,,6.45e+02,,,
"1/0362678252.43174",2014-10-29T15:57:36.478,13743,501.00,74.02,73.84,"09:58:31",109.98,-0.090,1.140,94.76,2.37e+02,2,,6.97e+02,,,
"1/0362678260.13224",2014-10-29T15:57:44.021,13743,497.00,73.58,73.39,"11:02:49",109.70,-0.090,1.140,94.47,2.38e+02,2,,7.02e+02,,,
"1/0362678267.48810",2014-10-29T15:57:51.564,13743,492.00,73.13,72.94,"12:02:32",109.44,-0.080,1.140,94.18,2.45e+02,2,,7.44e+02,,,
"1/0362678275.18860",2014-10-29T15:57:59.107,13743,488.00,72.68,72.49,"13:02:14",109.18,-0.070,1.130,93.89,2.52e+02,2,,7.87e+02,,,
"1/0362678282.54446",2014-10-29T15:58:06.650,13743,483.00,72.23,72.03,"13:57:22",108.94,-0.070,1.130,93.60,2.55e+02,2,,8.06e+02,,,
"1/0362678290.24562",2014-10-29T15:58:14.194,13743,479.00,71.78,71.58,"14:47:54",108.72,-0.060,1.130,93.31,2.83e+02,2,,9.93e+02,,,
"1/0362678297.60148",2014-10-29T15:58:21.737,13743,474.00,71.33,71.12,"15:38:27",108.50,-0.060,1.130,93.01,2.67e+02,2,,8.84e+02,,,
"1/0362678305.30198",2014-10-29T15:58:29.280,13743,470.00,70.88,70.66,"16:24:24",108.30,-0.050,1.130,92.72,3.02e+02,2,,1.13e+03,,,
"1/0362678313.00248",2014-10-29T15:58:36.823,13743,466.00,70.42,70.20,"17:10:22",108.10,-0.040,1.130,92.42,2.85e+02,2,,1.01e+03,,,
"1/0362678320.35834",2014-10-29T15:58:44.366,13743,462.00,69.97,69.74,"17:51:45",107.92,-0.040,1.130,92.13,2.91e+02,2,,1.05e+03,,,
"1/0362678328.05949",2014-10-29T15:58:51.910,13743,458.00,69.51,69.28,"18:33:07",107.74,-0.030,1.130,91.83,2.87e+02,2,,1.02e+03,,,
"1/0362678335.41536",2014-10-29T15:58:59.453,13743,454.00,69.05,68.82,"19:12:12",107.57,-0.030,1.130,91.53,2.87e+02,2,,1.02e+03,,,
"1/0362678343.11586",2014-10-29T15:59:06.996,13743,451.00,68.59,68.36,"19:49:00",107.41,-0.020,1.130,91.23,2.92e+02,2,,1.06e+03,,,
"1/0362678350.47172",2014-10-29T15:59:14.539,13743,447.00,68.13,67.89,"20:23:30",107.26,-0.010,1.130,90.94,3.00e+02,2,,1.12e+03,,,
"1/0362678358.17222",2014-10-29T15:59:22.082,13743,443.00,67.67,67.43,"20:58:00",107.11,-0.010,1.120,90.64,3.00e+02,2,,1.12e+03,,,
"1/0362678365.52873",2014-10-29T15:59:29.626,13743,440.00,67.21,66.96,"21:27:54",106.98,-0.000,1.120,90.34,3.16e+02,2,,1.24e+03,,,
"1/0362678373.22923",2014-10-29T15:59:37.169,13743,436.00,66.74,66.49,"22:00:07",106.84,0.000,1.120,90.04,3.21e+02,2,,1.28e+03,,,
"1/0362678380.58509",2014-10-29T15:59:44.712,13743,433.00,66.28,66.02,"22:30:02",106.71,0.010,1.120,89.73,3.03e+02,2,,1.14e+03,,,
"1/0362678388.28559",2014-10-29T15:59:52.255,13743,430.00,65.81,65.55,"22:57:39",106.59,0.010,1.120,89.43,3.27e+02,2,,1.33e+03,,,
"1/0362678395.64145",2014-10-29T15:59:59.798,13743,427.00,65.34,65.08,"23:25:17",106.47,0.020,1.120,89.13,3.54e+02,2,,1.55e+03,,,
"1/0362678403.34261",2014-10-29T16:00:07.342,13743,424.00,64.88,64.61,"23:50:37",106.36,0.030,1.120,88.83,3.90e+02,2,,1.89e+03,,,
"1/0362678411.04311",2014-10-29T16:00:14.885,13743,421.00,64.41,64.14,"00:13:39",106.26,0.030,1.120,88.52,3.94e+02,2,,1.93e+03,,,
"1/0362678418.39897",2014-10-29T16:00:22.428,13743,418.00,63.94,63.66,"00:38:59",106.15,0.040,1.120,88.22,3.15e+02,2,,1.23e+03,,,
"1/0362678426.09947",2014-10-29T16:00:29.971,13743,415.00,63.47,63.19,"01:02:02",106.05,0.040,1.120,87.92,3.16e+02,2,,1.24e+03,,,
"1/0362678433.45533",2014-10-29T16:00:37.514,13743,412.00,63.00,62.72,"01:22:47",105.96,0.050,1.110,87.61,3.03e+02,2,,1.14e+03,,,
"1/0362678441.15648",2014-10-29T16:00:45.058,13743,410.00,62.52,62.24,"01:43:31",105.87,0.060,1.110,87.31,3.54e+02,2,,1.55e+03,,,
"1/0362678448.51234",2014-10-29T16:00:52.601,13743,407.00,62.05,61.76,"02:04:16",105.78,0.060,1.110,87.00,4.46e+02,2,,2.47e+03,,,
"1/0362678456.21285",2014-10-29T16:01:00.144,13743,405.00,61.58,61.29,"02:22:44",105.70,0.070,1.110,86.70,4.36e+02,2,,2.36e+03,,,
"1/0362678463.56871",2014-10-29T16:01:07.687,13743,403.00,61.10,60.81,"02:41:11",105.62,0.070,1.110,86.39,4.20e+02,2,,2.19e+03,,,
"1/0362678471.26921",2014-10-29T16:01:15.230,13743,401.00,60.63,60.33,"02:59:39",105.54,0.080,1.110,86.08,4.05e+02,2,,2.03e+03,,,
"1/0362678478.62572",2014-10-29T16:01:22.774,13743,398.00,60.15,59.85,"03:18:06",105.46,0.090,1.110,85.78,4.21e+02,2,,2.20e+03,,,
"1/0362678486.32622",2014-10-29T16:01:30.317,13743,396.00,59.68,59.37,"03:34:16",105.39,0.090,1.110,85.47,3.43e+02,2,,1.46e+03,,,
"1/0362678494.02672",2014-10-29T16:01:37.860,13743,395.00,59.20,58.89,"03:50:26",105.32,0.100,1.110,85.17,3.76e+02,2,,1.75e+03,,,
"1/0362678501.38258",2014-10-29T16:01:45.403,13743,393.00,58.72,58.41,"04:04:18",105.26,0.100,1.110,84.86,3.98e+02,2,,1.96e+03,,,
"1/0362678509.08308",2014-10-29T16:01:52.946,13743,391.00,58.24,57.93,"04:20:28",105.19,0.110,1.100,84.55,4.09e+02,2,,2.07e+03,,,
"1/0362678516.43960",2014-10-29T16:02:00.490,13743,389.00,57.77,57.45,"04:34:21",105.13,0.120,1.100,84.24,3.89e+02,2,,1.88e+03,,,
"1/0362678524.14010",2014-10-29T16:02:08.033,13743,388.00,57.29,56.97,"04:48:13",105.07,0.120,1.100,83.94,3.88e+02,2,,1.87e+03,,,
"1/0362678531.49596",2014-10-29T16:02:15.576,13743,386.00,56.81,56.49,"04:59:48",105.02,0.130,1.100,83.63,3.82e+02,2,,1.81e+03,,,
"1/0362678539.19646",2014-10-29T16:02:23.119,13743,385.00,56.33,56.00,"05:13:40",104.96,0.130,1.100,83.32,3.47e+02,2,,1.49e+03,,,
"1/0362678546.55232",2014-10-29T16:02:30.662,13743,384.00,55.85,55.52,"05:25:15",104.91,0.140,1.100,83.02,3.54e+02,2,,1.55e+03,,,
"1/0362678554.25347",2014-10-29T16:02:38.206,13743,383.00,55.37,55.04,"05:36:50",104.86,0.150,1.100,82.71,3.72e+02,2,,1.72e+03,,,
"1/0362678561.60933",2014-10-29T16:02:45.749,13743,382.00,54.88,54.55,"05:48:25",104.81,0.150,1.100,82.40,3.97e+02,2,,1.95e+03,,,
"1/0362678569.30983",2014-10-29T16:02:53.292,13743,381.00,54.40,54.07,"06:00:00",104.76,0.160,1.100,82.10,4.25e+02,2,,2.24e+03,,,
"1/0362678577.01034",2014-10-29T16:03:00.835,13743,380.00,53.92,53.59,"06:09:17",104.72,0.160,1.100,81.79,4.29e+02,2,,2.28e+03,,,
"1/0362678584.36620",2014-10-29T16:03:08.378,13743,379.00,53.44,53.10,"06:18:35",104.68,0.170,1.090,81.48,4.39e+02,2,,2.39e+03,,,
"1/0362678592.06735",2014-10-29T16:03:15.922,13743,378.00,52.96,52.62,"06:30:09",104.63,0.170,1.090,81.18,4.52e+02,2,,2.53e+03,,,
"1/0362678599.42321",2014-10-29T16:03:23.465,13743,378.00,52.47,52.13,"06:39:27",104.59,0.180,1.090,80.87,4.52e+02,2,,2.53e+03,,,
"1/0362678607.12371",2014-10-29T16:03:31.008,13743,377.00,51.99,51.65,"06:48:44",104.55,0.190,1.090,80.57,4.27e+02,2,,2.26e+03,,,
"1/0362678614.47957",2014-10-29T16:03:38.551,13743,377.00,51.51,51.16,"06:55:44",104.52,0.190,1.090,80.26,4.21e+02,2,,2.20e+03,,,
"1/0362678622.18007",2014-10-29T16:03:46.094,13743,377.00,51.02,50.68,"07:05:01",104.48,0.200,1.090,79.96,4.46e+02,2,,2.47e+03,,,
"1/0362678629.53659",2014-10-29T16:03:53.638,13743,377.00,50.54,50.19,"07:12:01",104.45,0.200,1.090,79.65,4.39e+02,2,,2.39e+03,,,
"1/0362678637.23709",2014-10-29T16:04:01.181,13743,377.00,50.05,49.71,"07:21:19",104.41,0.210,1.090,79.35,4.42e+02,2,,2.42e+03,,,
"1/0362678644.59295",2014-10-29T16:04:08.724,13743,377.00,49.57,49.22,"07:28:19",104.38,0.210,1.090,79.04,4.27e+02,2,,2.26e+03,,,
"1/0362678652.29345",2014-10-29T16:04:16.267,13743,377.00,49.09,48.74,"07:35:18",104.35,0.220,1.080,78.74,4.28e+02,2,,2.27e+03,,,
"1/0362678659.64996",2014-10-29T16:04:23.811,13743,377.00,48.60,48.25,"07:42:18",104.32,0.230,1.080,78.44,4.28e+02,2,,2.27e+03,,,
"1/0362678667.35046",2014-10-29T16:04:31.354,13743,377.00,48.12,47.77,"07:49:18",104.29,0.230,1.080,78.13,4.50e+02,2,,2.51e+03,,,
"1/0362678675.05096",2014-10-29T16:04:38.897,13743,378.00,47.63,47.29,"07:54:01",104.27,0.240,1.080,77.83,4.90e+02,2,,2.98e+03,,,
"1/0362678682.40682",2014-10-29T16:04:46.440,13743,378.00,47.15,46.80,"08:01:00",104.24,0.240,1.080,77.53,4.64e+02,2,,2.67e+03,,,
"1/0362678690.10732",2014-10-29T16:04:53.983,13743,379.00,46.67,46.32,"08:05:43",104.22,0.250,1.080,77.23,3.77e+02,2,,1.76e+03,1.79e+00,2,1.99e+01
"1/0362678697.46384",2014-10-29T16:05:01.527,13743,380.00,46.18,45.83,"08:12:43",104.19,0.260,1.080,76.93,3.24e+02,2,,1.30e+03,1.66e+00,1,2.15e+01
"1/0362678705.16434",2014-10-29T16:05:09.070,13743,380.00,45.70,45.35,"08:17:25",104.17,0.260,1.080,76.63,4.03e+02,2,,2.01e+03,1.93e+00,1,1.85e+01
"1/0362678712.52020",2014-10-29T16:05:16.613,13743,381.00,45.21,44.86,"08:22:07",104.15,0.270,1.080,76.33,3.92e+02,2,,1.91e+03,,,
"1/0362678720.22070",2014-10-29T16:05:24.156,13743,382.00,44.73,44.38,"08:26:50",104.13,0.270,1.080,76.04,3.28e+02,2,,1.33e+03,,,
"1/0362678727.57656",2014-10-29T16:05:31.699,13743,383.00,44.25,43.90,"08:33:50",104.10,0.280,1.070,75.74,3.78e+02,2,,1.77e+03,,,
"1/0362678735.27772",2014-10-29T16:05:39.243,13743,385.00,43.76,43.42,"08:36:14",104.09,0.280,1.070,75.44,2.99e+02,2,,1.11e+03,1.95e+00,2,1.83e+01
"1/0362678742.63358",2014-10-29T16:05:46.786,13743,386.00,43.28,42.93,"08:40:57",104.07,0.290,1.070,75.15,2.72e+02,2,,9.17e+02,2.14e+00,1,1.67e+01
"1/0362678750.33408",2014-10-29T16:05:54.329,13743,387.00,42.80,42.45,"08:45:39",104.05,0.290,1.070,74.85,2.72e+02,2,,9.17e+02,2.55e+00,1,1.40e+01
"1/0362678758.03458",2014-10-29T16:06:01.872,13743,389.00,42.32,41.97,"08:50:22",104.03,0.300,1.070,74.56,2.61e+02,2,,8.45e+02,,,
"1/0362678765.39044",2014-10-29T16:06:09.415,13743,391.00,41.83,41.49,"08:52:46",104.02,0.310,1.070,74.27,3.14e+02,2,,1.22e+03,,,
"1/0362678773.09159",2014-10-29T16:06:16.959,13743,392.00,41.35,41.01,"08:57:29",104.00,0.310,1.070,73.97,3.24e+02,2,,1.30e+03,,,
"1/0362678780.44745",2014-10-29T16:06:24.502,13743,394.00,40.87,40.53,"09:02:11",103.98,0.320,1.070,73.68,3.30e+02,2,,1.35e+03,,,
"1/0362678788.14795",2014-10-29T16:06:32.045,13743,396.00,40.39,40.05,"09:04:36",103.97,0.320,1.070,73.39,3.19e+02,2,,1.26e+03,,,
"1/0362678795.50381",2014-10-29T16:06:39.588,13743,398.00,39.91,39.57,"09:07:01",103.96,0.330,1.070,73.10,3.00e+02,2,,1.12e+03,,,
"1/0362678803.20431",2014-10-29T16:06:47.131,13743,400.00,39.43,39.09,"09:11:43",103.94,0.330,1.060,72.82,2.64e+02,2,,8.64e+02,,,
"1/0362678810.56083",2014-10-29T16:06:54.675,13743,402.00,38.95,38.61,"09:14:08",103.93,0.340,1.060,72.53,2.64e+02,2,,8.64e+02,,,
"1/0362678818.26133",2014-10-29T16:07:02.218,13743,404.00,38.47,38.13,"09:16:33",103.92,0.340,1.060,72.24,2.33e+02,2,,6.73e+02,,,
"1/0362678825.61719",2014-10-29T16:07:09.761,13743,407.00,37.99,37.66,"09:18:58",103.91,0.350,1.060,71.96,2.53e+02,2,,7.94e+02,2.45e+00,1,1.46e+01
"1/0362678833.31769",2014-10-29T16:07:17.304,13743,409.00,37.51,37.18,"09:21:23",103.90,0.360,1.060,71.68,2.23e+02,2,,6.17e+02,2.08e+00,2,1.71e+01
"1/0362678841.01819",2014-10-29T16:07:24.847,13743,412.00,37.04,36.70,"09:23:47",103.89,0.360,1.060,71.39,2.18e+02,2,,5.89e+02,2.05e+00,2,1.74e+01
"1/0362678848.37471",2014-10-29T16:07:32.391,13743,415.00,36.56,36.23,"09:26:12",103.88,0.370,1.060,71.11,2.13e+02,2,,5.63e+02,2.23e+00,1,1.60e+01
"1/0362678856.07521",2014-10-29T16:07:39.934,13743,417.00,36.08,35.75,"09:28:37",103.87,0.370,1.060,70.83,2.32e+02,2,,6.67e+02,2.52e+00,1,1.41e+01
"1/0362678863.43107",2014-10-29T16:07:47.477,13743,420.00,35.61,35.28,"09:31:02",103.86,0.380,1.060,70.56,2.16e+02,2,,5.79e+02,,,
"1/0362678871.13157",2014-10-29T16:07:55.020,13743,423.00,35.13,34.81,"09:31:09",103.86,0.380,1.060,70.28,2.02e+02,2,,5.06e+02,2.51e+00,1,1.42e+01
"1/0362678878.48743",2014-10-29T16:08:02.563,13743,426.00,34.66,34.33,"09:33:34",103.85,0.390,1.050,70.00,2.46e+02,2,,7.50e+02,,,